Astoria, OR

10:17 AM PST on January 21, 2017 (GMT -0800)
Astoria

Weather History for KAST - January, 2017

Change the Weather History Date:

Thursday, January 12, 2017

  Actual Average Record
Temperature  
Mean Temperature 35 °F 44 °F  
Max Temperature 41 °F 50 °F 61 °F (1986)
Min Temperature 29 °F 38 °F 15 °F (1909)
Degree Days  
Heating Degree Days 30 21  
Month to date heating degree days 344 261  
Since 1 July heating degree days 1942 2367  
Cooling Degree Days 0 0  
Month to date cooling degree days 0 0  
Year to date cooling degree days 0 0  
Moisture  
Dew Point 26 °F    
Average Humidity 72    
Maximum Humidity 85    
Minimum Humidity 59    
Precipitation  
Precipitation 0.00 in 0.34 in 3.16 in (1900)
Month to date precipitation 1.78 4.17  
Year to date precipitation 1.78 4.17  
Sea Level Pressure  
Sea Level Pressure 30.19 in    
Wind  
Wind Speed 6 mph (ENE)    
Max Wind Speed 14 mph    
Max Gust Speed 16 mph    
Visibility 10 miles    
Events      
T = Trace of Precipitation, MM = Missing Value Source: NWS Daily Summary

Daily Weather History Graph

Daily Weather History Graph

Search for Another Location

Airport or City:

Trip Planner

Search our weather history database for the weather conditions in past years. The results will help you decide how hot, cold, wet, or windy it might be!

Date:

Astronomy

Jan. 12, 2017 Rise Set
Actual Time 7:55 AM PST 4:53 PM PST
Civil Twilight 7:21 AM PST 5:26 PM PST
Nautical Twilight 6:44 AM PST 6:04 PM PST
Astronomical Twilight 6:08 AM PST 6:40 PM PST
Moon 5:39 PM PST (1/12) 7:49 AM PST (1/12)
Length of Visible Light 10h 05m
Length of Day
8h 57m
Full, 100% of the Moon is Illuminated
Jan 12
Full
Jan 19
Last Quarter
Jan 27
New
Feb 3
First Quarter
Feb 10
Full

Hourly Weather History & Observations

Time (PST) Temp. Windchill Dew Point Humidity Pressure Visibility Wind Dir Wind Speed Gust Speed Precip Events Conditions
12:55 AM 34.0 °F 26.6 °F 27.0 °F 75% 30.02 in 10.0 mi East 9.2 mph - N/A   Clear
1:55 AM 33.1 °F 26.1 °F 26.1 °F 75% 30.04 in 10.0 mi ENE 8.1 mph - N/A   Clear
2:55 AM 33.1 °F 26.9 °F 26.1 °F 75% 30.06 in 10.0 mi East 6.9 mph - N/A   Clear
3:55 AM 32.0 °F 24.8 °F 26.1 °F 79% 30.08 in 10.0 mi East 8.1 mph - N/A   Clear
4:55 AM 32.0 °F 23.0 °F 25.0 °F 75% 30.08 in 10.0 mi East 11.5 mph - N/A   Clear
5:55 AM 30.9 °F 22.8 °F 24.1 °F 76% 30.10 in 10.0 mi East 9.2 mph - N/A   Clear
6:55 AM 30.9 °F 23.5 °F 23.0 °F 72% 30.12 in 10.0 mi East 8.1 mph - N/A   Clear
7:55 AM 30.0 °F 25.2 °F 23.0 °F 75% 30.14 in 10.0 mi East 4.6 mph - N/A   Clear
8:55 AM 32.0 °F 25.6 °F 24.1 °F 73% 30.18 in 10.0 mi East 6.9 mph - N/A   Clear
9:55 AM 35.1 °F 28.6 °F 26.1 °F 70% 30.20 in 10.0 mi ENE 8.1 mph - N/A   Clear
10:55 AM 37.0 °F 29.8 °F 26.1 °F 65% 30.20 in 10.0 mi East 10.4 mph - N/A   Clear
11:55 AM 39.0 °F 32.8 °F 27.0 °F 62% 30.20 in 10.0 mi NE 9.2 mph - N/A   Clear
12:55 PM 39.9 °F 33.9 °F 28.0 °F 63% 30.19 in 10.0 mi NE 9.2 mph - N/A   Clear
1:55 PM 39.9 °F 33.4 °F 28.0 °F 63% 30.20 in 10.0 mi NE 10.4 mph - N/A   Clear
2:55 PM 41.0 °F 35.2 °F 28.0 °F 60% 30.21 in 10.0 mi ENE 9.2 mph - N/A   Clear
3:55 PM 39.9 °F 34.5 °F 28.0 °F 63% 30.23 in 10.0 mi ENE 8.1 mph - N/A   Clear
4:55 PM 37.0 °F 31.6 °F 28.0 °F 70% 30.24 in 10.0 mi East 6.9 mph - N/A   Clear
5:55 PM 34.0 °F 31.0 °F 26.1 °F 73% 30.26 in 10.0 mi East 3.5 mph - N/A   Clear
6:55 PM 34.0 °F - 27.0 °F 75% 30.27 in 10.0 mi Calm Calm - N/A   Clear
7:55 PM 32.0 °F - 26.1 °F 79% 30.28 in 10.0 mi Calm Calm - N/A   Clear
8:55 PM 30.0 °F - 25.0 °F 82% 30.30 in 10.0 mi Calm Calm - N/A   Clear
9:55 PM 32.0 °F 28.7 °F 26.1 °F 79% 30.31 in 10.0 mi East 3.5 mph - N/A   Clear
10:55 PM 30.9 °F - 26.1 °F 82% 30.31 in 10.0 mi Calm Calm - N/A   Clear
11:55 PM 30.9 °F 27.5 °F 25.0 °F 79% 30.32 in 10.0 mi East 3.5 mph - N/A   Clear